weather.gov     
National Weather Service

Regional Weather Roundup
NWS Homepage
This page is being discontinued on March 12, 2014.
The same data is available at this site. Please update your bookmarks.
Thank you, and we apologize for the inconvenience.
Please send an email to SR-SRH.Webmaster@noaa.gov with any concerns.


Current Version
Previous Version:    01  02  03  04  05  06  07  08  09  10  11  12  13  14  15  16  17  18  19  20  21  22  23  24  25  26  
[Printable]
932
ASUS42 KTBW 230910
RWRFL
FLORIDA REGIONAL WEATHER ROUNDUP
NATIONAL WEATHER SERVICE TAMPA BAY RUSKIN FL
500 AM EDT WED JUL 23 2014

NOTE: "FAIR" INDICATES FEW OR NO CLOUDS BELOW 12,000 FEET WITH NO
SIGNIFICANT WEATHER AND/OR OBSTRUCTIONS TO VISIBILITY.


FLZ001>010-012>015-112-114-115-231000-
PANHANDLE FLORIDA

CITY           SKY/WX    TMP DP  RH WIND       PRES   REMARKS
PENSACOLA      CLEAR     75  74  96 N5        30.02S
PENSACOLA NAS  CLEAR     72  72 100 CALM      30.01F FOG
MILTON NAS     CLEAR     71  69  93 CALM      30.03S FOG
CRESTVIEW      CLEAR     70  69  97 CALM      30.04F
VALPARAISO     PTCLDY    75  73  95 NE2       30.01F
MARY ESTHER    CLEAR     75  71  86 N5        30.01S
PANAMA CITY    FAIR      74  72  93 CALM      30.02S
TYNDALL AFB    CLEAR     75  75 100 E3        30.04S
APALACHICOLA   CLEAR     73  70  90 CALM      30.04R

STATION/POSITION SKY/WX   TEMP    WIND        PRES    WAVE   SWELL
                          AIR SEA DIR/SP/G            HT/PER HT/PER
                          (F)     (DEG/KT/KT) (MB)    (FT/S) (FT/S)
30.1N   87.6W              81 83  170/  2/  4 1016.5R   1/ 4
29.2N   88.2W              82 83  160/  6/  6 1016.6R
28.8N   86.0W              81 83  170/  6/  8 1016.6S   1/ 4
PANAMA CITY BEAC           78 83   40/  5/  6 1016.7R
CAPE SAN BLAS    NOT AVBL
TOWER C                    81        CALM     1017.0F
28.5N   84.5W              83 84  210/  4/  4 1016.9F   1/ 8

$$
FLZ011-016>038-118-127-128-134-139-239-231000-
NORTH FLORIDA

CITY           SKY/WX    TMP DP  RH WIND       PRES   REMARKS
MARIANNA       CLEAR     73  73 100 CALM      30.03S
TALLAHASSEE    CLEAR     73  69  87 CALM      30.04S
PERRY            N/A     70  70 100 CALM      30.05F FOG
CROSS CITY       N/A     73  71  93 CALM      30.04S
GAINESVILLE    CLEAR     72  72 100 CALM      30.05S
MAYPORT NAS    CLEAR     79  75  87 W3        30.04S
JACKSONVILLE   CLEAR     74  74 100 CALM      30.04S
JAX NAS        PTCLDY    81  76  84 SW3       30.05S
JAX CRAIG      CLEAR     76  73  91 CALM      30.04S
JAX CECIL      FOG       72  72 100 CALM      30.05S VSB 1
FERNANDINA BEA FAIR      77  73  88 CALM      30.03S
ST AUGUSTINE   CLEAR     76  74  93 W3        30.05S

STATION/POSITION SKY/WX   TEMP    WIND        PRES    WAVE   SWELL
                          AIR SEA DIR/SP/G            HT/PER HT/PER
                          (F)     (DEG/KT/KT) (MB)    (FT/S) (FT/S)
SHELL POINT                76     320/  4/  5   N/A
KEATON BEACH               75      90/  1/  2 1017.6R
CEDAR KEY                  79      50/  4/  5 1017.5F
FERNANDINA                 79 85  320/  2/  3 1016.8R
30.7N   81.3W                 84                N/A     2/ 8
MAYPORT                    80 85  290/  3/  4   N/A
31.4N   80.9W              82 84  240/  6/  8 1017.1F   3/ 8   2/ 8
ST AUGUSTINE               77     280/  3/  4 1017.9S

$$
FLZ040-043>046-052-053-057-058-063-144-231000-
INTERIOR CENTRAL FLORIDA

CITY           SKY/WX    TMP DP  RH WIND       PRES   REMARKS
OCALA          CLEAR     72  64  78 CALM      30.05S
LEESBURG       CLEAR     76  73  91 SW5       30.06S
SANFORD        CLEAR     76  76 100 CALM      30.04S
ORLANDO EXEC   CLEAR     76  74  93 CALM      30.05S
ORLANDO INTL   PTCLDY    74  73  97 CALM      30.05S
WINTER HAVEN   CLEAR     75  73  93 CALM      30.06S
LAKELAND       PTCLDY    73  73 100 CALM      30.05S
BARTOW         FAIR      72 N/A N/A CALM      30.05F
OKEECHOBEE     CLEAR     72  72 100 MISG      30.05F FOG

$$
FLZ041-047-054-059-064-141-147-231000-
EAST CENTRAL FLORIDA

CITY           SKY/WX    TMP DP  RH WIND       PRES   REMARKS
DAYTONA BEACH  MOCLDY    75  74  96 S3        30.05S
DELAND         MOSUNNY   75  73  94 CALM      30.06S
JFK SPACE CTR  CLEAR     73  73 100 SW2       30.04S
CAPE CANAVERAL CLEAR     73  72  96 CALM      30.04S
PATRICK AFB    CLEAR     78  75  92 SW5       30.04S
MELBOURNE      CLEAR     74  73  97 CALM      30.05R
VERO BEACH     PTCLDY    72  72 100 CALM      30.05R
FT PIERCE      CLEAR     74  71  91 CALM      30.05R
STUART         CLEAR     75  73  94 CALM      30.05S

STATION/POSITION SKY/WX   TEMP    WIND        PRES    WAVE   SWELL
                          AIR SEA DIR/SP/G            HT/PER HT/PER
                          (F)     (DEG/KT/KT) (MB)    (FT/S) (FT/S)
28.5N   80.2W              82 83  200/  8/ 10 1017.5F
28.9N   78.5W              83 84  160/ 14/ 17 1017.8S   4/ 7   2/ 8
TRIDENT PIER               80 87  210/  5/  5 1016.8S
28.4N   80.5W                 85                N/A     2/ 7
27.6N   80.2W                 84                N/A     2/ 7

$$
FLZ050-056-061-142-242-148-248-149-249-151-251-155-255-
160-260-231000-
WEST CENTRAL FLORIDA

CITY           SKY/WX    TMP DP  RH WIND       PRES   REMARKS
CRYSTAL RIVER  FAIR      72  70  94 CALM      30.04S
INVERNESS      FAIR      72  70  94 CALM      30.05S FOG
BROOKSVILLE    PTCLDY    74  72  93 E3        30.05S
ZEPHYRHILLS    FAIR      70  70 100 CALM      30.06R
CLEARWATER     CLEAR     78  76  93 CALM      30.03F
TAMPA INTL     PTCLDY    78  74  87 CALM      30.04F
TAMPA EXEC     PTCLDY    73  72  94 CALM      30.05S FOG
PLANT CITY     PTCLDY    75 N/A N/A CALM      30.06F
MACDILL AFB    CLEAR     76  76 100 E5        30.04S
ST PETERSBURG  CLEAR     80  78  94 S3        30.02S
SARASOTA       CLEAR     76  74  93 SE5       30.02S
VENICE           N/A     77  75  94 SE6       30.04S

STATION/POSITION SKY/WX   TEMP    WIND        PRES    WAVE   SWELL
                          AIR SEA DIR/SP/G            HT/PER HT/PER
                          (F)     (DEG/KT/KT) (MB)    (FT/S) (FT/S)
CEDAR KEY                  79      50/  4/  5 1017.5F
28.5N   84.5W              83 84  210/  4/  4 1016.9F   1/ 8
27.3N   84.3W                 86                N/A     1/ 6
CLEARWATER BEACH           81 88  120/  4/  6 1016.6R
MIDDLE TAMPA BAY           79     150/  7/  8 1017.2S
VENICE                     78 88  110/  5/  7 1016.6F

$$
FLZ066-069-070-075>078-162-262-165-265-231000-
SOUTHWEST FLORIDA AND KEYS

CITY           SKY/WX    TMP DP  RH WIND       PRES   REMARKS
PUNTA GORDA    CLEAR     76  75  97 CALM      30.05F
FT MYERS       CLEAR     75  74  96 CALM      30.03F
SOUTHWEST INTL CLEAR     74  73  97 E3        30.04F
NAPLES         CLEAR     76  76 100 E3        30.03S
MARATHON       PTCLDY    84  77  79 SE6       30.02S
KEY WEST NAS   CLEAR     81  74  79 SE6       30.03S
KEY WEST INTL  CLEAR     84  73  69 SE5       30.03S

STATION/POSITION SKY/WX   TEMP    WIND        PRES    WAVE   SWELL
                          AIR SEA DIR/SP/G            HT/PER HT/PER
                          (F)     (DEG/KT/KT) (MB)    (FT/S) (FT/S)
VENICE                     78 88  110/  5/  7 1016.6F
NAPLES                     76 91   90/  2/  4 1017.5R
DRY TORTUGAS               83     100/  3/  4 1016.9R
NW FL BAY                  85     130/  4/  7 1017.1F
SAND KEY                   83     130/  5/  7 1016.8S
SOMBRERO KEY               83     160/ 10/ 11 1017.5R
LONG KEY                   84 87  160/  8/ 10 1017.5S
MOLASSES REEF              84 86  140/  8/  9 1016.8F

$$
FLZ067-068-071>074-168-172>174-231000-
SOUTHEAST FLORIDA

CITY           SKY/WX    TMP DP  RH WIND       PRES   REMARKS
W PALM BEACH   PTCLDY    78  76  93 CALM      30.03S
FT LAUDER-EXEC PTCLDY    79  78  97 CALM      30.03S
FT LAUDERDALE  MOCLDY    80  75  84 CALM      30.03S
POMPANO BEACH    N/A    N/A N/A N/A MISG      30.03S
PEMBROKE PINES PTCLDY    78  75  90 CALM      30.05S
OPA LOCKA        N/A     80  76  87 CALM      30.04S
MIAMI          MOCLDY    81  76  84 CALM      30.04S
WEST KENDALL   CLEAR     78  74  87 CALM      30.04S
HOMESTEAD      CLEAR     78  77  96 CALM      30.04S

STATION/POSITION SKY/WX   TEMP    WIND        PRES    WAVE   SWELL
                          AIR SEA DIR/SP/G            HT/PER HT/PER
                          (F)     (DEG/KT/KT) (MB)    (FT/S) (FT/S)
PORT EVERGLADES            81     200/  3/  4 1017.1
VIRGINIA KEY               84 86  170/  5/  8   N/A
LAKE WORTH                 81 84              1016.7R
FOWEY ROCKS                84 86  140/ 12/ 13 1017.3F
SETTLEMENT POINT           83     160/  9/ 11 1018.1R

$$





U.S. Dept. of Commerce
NOAA National Weather Service
1325 East West Highway
Silver Spring, MD 20910
E-mail: w-nws.webmaster@noaa.gov
Page last modified: May 16, 2007
NATIONAL WEATHER SERVICE: for Safety, for Work, for Fun - FOR LIFE